Simultaneous Nadir Overpasses (SNOs) Predictions

Prediction of SNOs between FY3D and NOAA-20 Satellite Orbit:

Table of predicted SNOs for the next 14.0 days since TLE Epoch: 8/6/2022
Index Date (FY3D) Time (FY3D) Lat,Lon (FY3D) SZA (FY3D ) Date (NOAA-20) Time (NOAA-20) Lat,Lon (NOAA-20) SZA (NOAA-20 ) Distance(km) Time Diff (sec)
1 08/06/2022 03:26:49 81.22, 68.63 69.20 08/06/2022 03:26:38 81.22, 68.80 69.18 2.96 11
2 08/06/2022 04:17:34 -81.22,-123.92 110.82 08/06/2022 04:17:23 -81.22,-123.93 110.81 0.12 11
3 08/06/2022 05:08:20 81.22, 43.37 69.20 08/06/2022 05:08:08 81.22, 43.36 69.21 0.15 12
4 08/06/2022 05:59:05 -81.22,-149.18 110.81 08/06/2022 05:58:53 -81.22,-149.36 110.78 3.17 12
5 08/06/2022 06:49:51 81.22, 18.11 69.20 08/06/2022 06:49:38 81.22, 17.92 69.24 3.24 13
6 08/06/2022 07:40:37 -81.22,-174.82 110.76 08/06/2022 07:40:23 -81.22,-174.80 110.75 0.36 14
7 08/06/2022 08:31:23 81.22, -7.53 69.26 08/06/2022 08:31:08 81.22, -7.51 69.26 0.35 15
8 08/06/2022 09:22:08 -81.22, 159.92 110.76 08/06/2022 09:21:53 -81.22, 159.76 110.73 2.79 15
9 08/06/2022 10:12:54 81.22, -32.79 69.26 08/06/2022 10:12:38 81.22, -32.95 69.29 2.83 16
10 08/06/2022 11:03:39 -81.22, 134.67 110.76 08/06/2022 11:03:22 -81.21, 134.71 110.75 0.75 17
11 08/06/2022 11:54:25 81.22, -58.04 69.26 08/06/2022 11:54:07 81.22, -58.00 69.26 0.73 18
12 08/06/2022 12:45:10 -81.22, 109.42 110.75 08/06/2022 12:44:52 -81.22, 109.27 110.73 2.43 18
13 08/06/2022 13:35:56 81.22, -83.30 69.26 08/06/2022 13:35:37 81.22, -83.44 69.29 2.43 19
14 08/06/2022 14:26:42 -81.22, 83.77 110.70 08/06/2022 14:26:22 -81.22, 83.84 110.70 1.07 20
15 08/06/2022 15:17:28 81.22,-108.94 69.32 08/06/2022 15:17:07 81.22,-108.88 69.32 1.10 21
16 08/06/2022 16:08:13 -81.22, 58.52 110.70 08/06/2022 16:07:52 -81.22, 58.40 110.67 2.03 21
17 08/06/2022 16:58:59 81.22,-134.20 69.32 08/06/2022 16:58:37 81.22,-134.31 69.35 1.99 22
18 08/06/2022 17:49:45 -81.22, 32.88 110.64 08/06/2022 17:49:22 -81.22, 32.96 110.64 1.47 23
19 08/06/2022 18:40:31 81.22,-159.84 69.38 08/06/2022 18:40:07 81.22,-159.75 69.38 1.55 24
20 08/06/2022 19:31:16 -81.22, 7.62 110.64 08/06/2022 19:30:52 -81.22, 7.53 110.61 1.67 24
21 08/06/2022 20:22:02 81.22, 174.90 69.38 08/06/2022 20:21:37 81.22, 174.81 69.41 1.60 25
22 08/06/2022 21:12:47 -81.22, -17.63 110.64 08/06/2022 21:12:21 -81.21, -17.53 110.64 1.84 26
23 08/06/2022 22:03:33 81.22, 149.65 69.38 08/06/2022 22:03:06 81.22, 149.76 69.38 1.94 27
24 08/06/2022 22:54:18 -81.22, -42.89 110.64 08/06/2022 22:53:51 -81.22, -42.96 110.61 1.30 27
25 08/06/2022 23:45:04 81.22, 124.39 69.38 08/06/2022 23:44:36 81.22, 124.32 69.41 1.19 28
26 08/07/2022 00:35:50 -81.22, -68.53 110.58 08/07/2022 00:35:21 -81.22, -68.40 110.58 2.20 29
27 08/07/2022 01:26:36 81.22, 98.75 69.44 08/07/2022 01:26:06 81.22, 98.88 69.44 2.35 30
28 08/07/2022 02:17:21 -81.22, -93.79 110.58 08/07/2022 02:16:51 -81.22, -93.84 110.56 0.90 30
29 08/07/2022 03:08:07 81.22, 73.49 69.44 08/07/2022 03:07:36 81.22, 73.45 69.46 0.75 31
30 08/07/2022 03:58:53 -81.22,-119.43 110.52 08/07/2022 03:58:21 -81.22,-119.27 110.53 2.60 32
31 08/07/2022 04:49:38 81.22, 48.23 69.44 08/07/2022 04:49:05 81.21, 48.39 69.44 2.78 33
32 08/07/2022 05:40:24 -81.22,-144.68 110.52 08/07/2022 05:39:51 -81.22,-144.71 110.50 0.58 33
33 08/07/2022 06:31:10 81.22, 22.59 69.50 08/07/2022 06:30:36 81.22, 22.57 69.52 0.47 34
34 08/07/2022 07:21:55 -81.22,-169.94 110.52 08/07/2022 07:21:20 -81.21,-169.76 110.53 2.96 35
35 08/07/2022 08:12:41 81.22, -2.67 69.50 08/07/2022 08:12:05 81.22, -2.48 69.49 3.17 36
36 08/07/2022 09:03:26 -81.22, 164.81 110.52 08/07/2022 09:02:50 -81.22, 164.80 110.50 0.25 36
37 08/07/2022 09:54:11 81.22, -27.92 69.50 08/07/2022 09:53:34 81.22, -27.92 69.52 0.15 37
38 08/07/2022 10:44:56 -81.22, 139.55 110.52 08/07/2022 10:44:19 -81.22, 139.36 110.47 3.26 37
39 08/07/2022 11:35:42 81.22, -53.18 69.50 08/07/2022 11:35:04 81.22, -53.36 69.55 3.03 38
40 08/07/2022 12:26:28 -81.22, 113.91 110.46 08/07/2022 12:25:49 -81.22, 113.92 110.44 0.24 39
41 08/07/2022 13:17:14 81.22, -78.82 69.56 08/07/2022 13:16:34 81.22, -78.79 69.58 0.51 40
42 08/07/2022 14:07:59 -81.22, 88.66 110.46 08/07/2022 14:07:19 -81.22, 88.49 110.41 2.87 40
43 08/07/2022 14:58:45 81.22,-104.08 69.56 08/07/2022 14:58:04 81.22,-104.23 69.61 2.61 41
44 08/07/2022 15:49:31 -81.22, 63.01 110.40 08/07/2022 15:48:49 -81.22, 63.05 110.38 0.69 42
45 08/07/2022 16:40:16 81.22,-129.33 69.56 08/07/2022 16:39:33 81.21,-129.28 69.58 0.95 43
46 08/07/2022 17:31:02 -81.22, 37.76 110.40 08/07/2022 17:30:19 -81.22, 37.61 110.36 2.51 43
47 08/07/2022 18:21:48 81.22,-154.98 69.62 08/07/2022 18:21:04 81.22,-155.11 69.66 2.23 44
48 08/07/2022 19:12:33 -81.22, 12.50 110.40 08/07/2022 19:11:48 -81.22, 12.56 110.38 0.99 45
49 08/07/2022 20:03:19 81.22, 179.77 69.62 08/07/2022 20:02:33 81.22, 179.84 69.64 1.31 46
50 08/07/2022 20:54:04 -81.22, -12.75 110.40 08/07/2022 20:53:18 -81.22, -12.88 110.35 2.13 46
51 08/07/2022 21:44:50 81.22, 154.51 69.62 08/07/2022 21:44:03 81.22, 154.40 69.66 1.79 47
52 08/07/2022 22:35:36 -81.22, -38.39 110.34 08/07/2022 22:34:48 -81.22, -38.31 110.33 1.36 48
53 08/07/2022 23:26:22 81.22, 128.86 69.68 08/07/2022 23:25:33 81.22, 128.97 69.69 1.74 49
54 08/08/2022 00:17:07 -81.22, -63.65 110.34 08/08/2022 00:16:18 -81.22, -63.75 110.30 1.75 49
55 08/08/2022 01:07:53 81.22, 103.61 69.68 08/08/2022 01:07:03 81.22, 103.53 69.72 1.38 50
56 08/08/2022 01:58:38 -81.22, -88.90 110.34 08/08/2022 01:57:47 -81.21, -88.80 110.33 1.76 51
57 08/08/2022 02:49:24 81.22, 78.35 69.68 08/08/2022 02:48:32 81.21, 78.48 69.69 2.15 52
58 08/08/2022 03:40:09 -81.22,-114.16 110.34 08/08/2022 03:39:17 -81.21,-114.24 110.30 1.42 52
59 08/08/2022 04:30:55 81.22, 53.10 69.69 08/08/2022 04:30:02 81.21, 53.04 69.72 1.00 53
60 08/08/2022 05:21:41 -81.22,-139.80 110.28 08/08/2022 05:20:47 -81.22,-139.68 110.27 2.11 54
61 08/08/2022 06:12:27 81.22, 27.45 69.74 08/08/2022 06:11:32 81.22, 27.60 69.75 2.55 55
62 08/08/2022 07:03:12 -81.22,-165.06 110.28 08/08/2022 07:02:17 -81.22,-165.11 110.24 1.00 55
63 08/08/2022 07:53:58 81.22, 2.20 69.74 08/08/2022 07:53:02 81.22, 2.16 69.78 0.55 56
64 08/08/2022 08:44:44 -81.22, 169.30 110.22 08/08/2022 08:43:47 -81.22, 169.45 110.21 2.49 57
65 08/08/2022 09:35:30 81.22, -23.45 69.80 08/08/2022 09:34:32 81.22, -23.27 69.81 2.98 58
66 08/08/2022 10:26:15 -81.22, 144.05 110.22 08/08/2022 10:25:17 -81.22, 144.01 110.18 0.65 58
67 08/08/2022 11:17:01 81.22, -48.70 69.80 08/08/2022 11:16:02 81.22, -48.71 69.84 0.29 59
68 08/08/2022 12:07:46 -81.22, 118.79 110.22 08/08/2022 12:06:46 -81.21, 118.96 110.21 2.86 60
69 08/08/2022 12:58:32 81.22, -73.96 69.81 08/08/2022 12:57:32 81.22, -74.15 69.87 3.24 60
70 08/08/2022 13:49:17 -81.22, 93.54 110.22 08/08/2022 13:48:16 -81.21, 93.52 110.18 0.38 61
71 08/08/2022 14:40:03 81.22, -99.22 69.81 08/08/2022 14:39:01 81.21, -99.20 69.84 0.33 62
72 08/08/2022 15:30:49 -81.22, 67.90 110.16 08/08/2022 15:29:46 -81.22, 68.08 110.15 3.23 63
73 08/08/2022 16:21:34 81.22,-124.47 69.81 08/08/2022 16:20:31 81.22,-124.64 69.87 2.84 63
74 08/08/2022 17:12:20 -81.22, 42.64 110.16 08/08/2022 17:11:16 -81.22, 42.65 110.12 0.13 64
75 08/08/2022 18:03:06 81.22,-150.12 69.87 08/08/2022 18:02:01 81.22,-150.08 69.90 0.69 65
76 08/08/2022 18:53:51 -81.22, 17.39 110.16 08/08/2022 18:52:46 -81.22, 17.21 110.09 2.98 65
77 08/08/2022 19:44:37 81.22,-175.37 69.87 08/08/2022 19:43:31 81.22,-175.51 69.93 2.42 66
78 08/08/2022 20:35:23 -81.22, -8.26 110.10 08/08/2022 20:34:16 -81.22, -8.23 110.06 0.55 67
79 08/08/2022 21:26:09 81.22, 158.98 69.93 08/08/2022 21:25:01 81.22, 159.05 69.96 1.15 68
80 08/08/2022 22:16:54 -81.22, -33.51 110.10 08/08/2022 22:15:46 -81.22, -33.66 110.04 2.61 68
81 08/08/2022 23:07:40 81.22, 133.73 69.93 08/08/2022 23:06:31 81.22, 133.61 69.98 2.03 69
82 08/08/2022 23:58:25 -81.22, -58.77 110.09 08/08/2022 23:57:15 -81.21, -58.72 110.06 0.90 70
83 08/09/2022 00:49:11 81.22, 108.47 69.93 08/09/2022 00:48:00 81.21, 108.56 69.96 1.51 71
84 08/09/2022 01:39:56 -81.22, -84.02 110.09 08/09/2022 01:38:45 -81.22, -84.15 110.03 2.25 71
85 08/09/2022 02:30:42 81.22, 83.21 69.93 08/09/2022 02:29:30 81.22, 83.12 69.99 1.60 72
86 08/09/2022 03:21:28 -81.22,-109.66 110.04 08/09/2022 03:20:15 -81.22,-109.59 110.01 1.24 73
87 08/09/2022 04:12:14 81.22, 57.57 69.99 08/09/2022 04:11:00 81.22, 57.68 70.02 1.92 74
88 08/09/2022 05:02:59 -81.22,-134.92 110.03 08/09/2022 05:01:45 -81.22,-135.03 109.98 1.86 74
89 08/09/2022 05:53:45 81.22, 32.31 69.99 08/09/2022 05:52:30 81.22, 32.24 70.04 1.19 75



Historial Predications of SNOs between FY3D and NOAA-20
